Location: Asheville, NC
(35.6000°N, 82.5500°W)
Time: 04:54:51
(UTC-04:00)

Vanguard 3 - Pass Details

Date: 10 February 2018
Orbit: 507 x 3264 km, 33.4° (Epoch: 24 May)

Event Time Altitude Azimuth Distance (km) Brightness Sun altitude
Rises 18:38:11 0° 236° (WSW) 2,590 11.3 -6.9°
Reaches altitude 10° 18:40:15 10° 228° (SW) 1,754 10.0 -7.3°
Maximum altitude 18:43:48 38° 158° (SSE) 928 7.4 -8.0°
Enters shadow 18:48:29 10° 91° (E) 2,339 8.9 -9.0°
Drops below altitude 10° 18:48:34 10° 90° (E) 2,371 - -9.0°
Sets 18:51:49 0° 84° (E) 3,672 - -9.6°
